Дата Пункты Температура Давл., мм. Влажн., % Ветер Погодные явления
Воздуха Воды Направл. Скорость
14.02.18 08:00 Одесса 1.0 3.0 760 88 В 8 08 ЧАСОВ
14.02.18 05:00 Одесса 1.0 3.0 760 86 В 6 05 ЧАСОВ
14.02.18 02:00 Одесса 1.0 3.0 760 87 В 5 02 ЧАСА
13.02.18 11:00 Одесса 1.0 3.0 760 86 В 4 23 ЧАСА
13.02.18 08:00 Одесса 1.0 3.0 760 86 В 2 20 ЧАСОВ
13.02.18 05:00 Одесса 1.0 3.0 759 84 С-В 1 17 ЧАСОВ
13.02.18 02:00 Одесса 1.0 3.0 759 83 З 1 14 ЧАСОВ
13.02.18 08:00 Одесса -1.0 3.0 758 83 С 1 08 ЧАСОВ
12.02.18 11:00 Одесса 1.0 3.0 756 81 С 2 23 ЧАСА
12.02.18 08:00 Одесса 1.0 3.0 756 81 С 2 20 ЧАСОВ
12.02.18 05:00 Одесса 1.0 3.0 755 85 С 2 17 ЧАСОВ
12.02.18 02:00 Одесса 2.0 3.0 754 86 С 2 14 ЧАСОВ
12.02.18 11:00 Одесса 2.0 3.0 754 88 С 1 11 ЧАСОВ
12.02.18 08:00 Одесса 1.0 3.0 753 96 С 4 08 ЧАСОВ
12.02.18 05:00 Одесса 1.0 3.0 752 94 С 2 05 ЧАСОВ
12.02.18 02:00 Одесса 2.0 3.0 751 94 С 5 02 ЧАСА
11.02.18 11:00 Одесса 2.0 3.0 751 94 С-В 5 23 ЧАСА
11.02.18 08:00 Одесса 3.0 3.0 751 93 С 5 20 ЧАСОВ
11.02.18 05:00 Одесса 3.0 3.0 751 91 С-В 7 17 ЧАСОВ
11.02.18 02:00 Одесса 4.0 3.0 752 85 С 5 14 ЧАСОВ
Количество строк
1 2 3 4 5 6 7 8 9 10
Page 3 of 330